Вернуться в каталог

FENGYUN 1C DEB

АктивенSSO
NORAD 31172·DEBRIS·🇨🇳 China

Запущен May 10, 1999 с Taiyuan Satellite Launch Center

Loading…

Ближайшие Пролёты (ближайшие 24 часа)

TLE

СвежийSource: Space-Track

Эпоха: Sep 14, 2026, 10:45 UTC

1 31172U 99025BJA 26257.44807594  .00000131  00000-0  58377-4 0  9991
2 31172  98.4303 258.9995 0148938 171.5007 188.8753 14.31724150 15637

Отслеживайте FENGYUN 1C DEB в реальном времени с AllMySat

Download on the App Store